Probability
0 1 3 4 3 1 0 0 0 0 0 0 0 0 0 1 1 1 2 2 1 0 1 1 2 4 4 4 4 5 6 6 5 3 2 1 0 0 0 0 0 0 0
0 1 3 6 4 2 0 0 0 0 0 0 1 1 0 1 1 0 1 1 0 0 1 1 2 3 4 4 4 5 5 4 3 2 1 0 0 0 0 0 0 0 0
0 1 3 6 6 3 1 0 0 0 0 1 2 3 2 2 2 1 1 1 0 0 0 1 2 3 3 3 4 4 3 2 1 1 0 0 0 0 0 0 0 0 0
0 1 3 5 6 4 2 0 0 0 0 2 4 5 4 4 4 3 3 2 1 0 0 0 1 3 3 3 3 4 3 1 0 0 0 0 1 2 1 1 1 0 0
0 1 3 4 4 4 2 1 0 0 0 2 3 3 3 4 4 4 4 3 1 1 0 0 1 2 2 2 2 2 2 1 0 0 0 0 1 3 3 2 2 1 0
0 1 2 3 3 3 3 2 1 0 0 1 2 1 1 2 3 4 5 4 3 2 2 2 2 1 1 1 1 1 1 0 0 0 0 0 0 1 2 2 2 2 1
0 1 2 3 3 3 3 2 1 0 0 0 0 0 0 1 2 3 4 4 3 4 4 4 2 1 0 0 0 0 0 0 0 0 0 0 0 0 0 0 1 2 3
0 1 2 3 3 4 3 2 1 0 0 0 0 0 0 0 1 2 2 3 4 4 4 3 2 0 1 2 1 1 0 1 1 0 0 1 1 1 0 0 1 3 4
0 1 2 3 3 4 4 3 1 0 0 0 0 0 0 0 1 2 2 2 3 3 3 3 3 2 2 4 4 3 2 2 2 1 1 1 1 1 0 0 1 3 4
0 0 1 1 2 3 3 3 2 1 1 1 1 1 1 1 1 2 2 1 1 1 1 2 4 3 3 5 6 5 5 4 3 3 2 1 0 0 0 0 1 3 4
0 0 0 0 1 1 1 2 3 2 2 2 1 1 2 2 2 2 1 0 0 1 2 2 2 3 5 6 6 6 4 3 2 2 2 1 0 0 0 1 2 3 3
1 0 0 0 0 0 0 2 3 3 3 3 2 2 3 3 3 2 1 0 0 1 2 2 2 3 5 6 6 5 3 2 1 1 1 1 0 0 0 1 3 3 4
2 1 1 0 0 0 0 1 3 3 3 3 3 3 3 3 3 2 1 1 0 1 2 3 4 5 6 6 6 5 4 2 1 1 1 1 0 1 1 2 3 4 4
3 3 2 1 1 1 1 1 3 3 3 3 3 3 3 3 3 3 2 2 2 2 3 5 6 7 7 7 6 5 3 2 2 2 2 1 1 2 3 3 3 4 4
2 2 2 2 2 2 2 2 2 3 3 3 2 2 2 3 3 3 3 2 2 2 4 6 7 7 7 7 5 4 3 2 1 1 1 1 1 2 3 3 3 3 3
1 1 1 1 1 1 1 1 1 2 2 1 1 1 1 1 3 3 3 2 1 2 3 5 7 7 7 7 6 6 6 4 2 1 1 1 1 1 2 3 2 1 2
1 1 0 0 0 0 0 0 1 1 1 1 2 2 1 1 2 2 2 2 2 2 3 4 6 8 8 8 7 7 7 4 2 1 1 2 1 0 1 1 0 0 1
2 2 1 0 0 0 0 0 1 1 1 2 3 3 1 1 1 1 1 2 2 2 2 3 6 9 9 7 6 6 5 3 2 1 1 2 2 0 0 0 0 1 1
3 2 1 0 0 0 0 0 0 1 2 3 3 3 3 2 1 0 0 1 1 1 1 3 5 7 6 4 3 3 4 3 2 1 1 1 1 0 0 1 1 2 2
3 3 1 0 0 0 0 0 0 1 2 3 3 3 3 3 2 1 0 0 0 0 1 2 3 3 3 2 2 2 3 3 3 3 3 1 0 0 0 1 2 3 3
3 3 2 0 0 0 0 0 1 1 2 3 3 3 3 3 3 2 1 1 1 1 1 1 1 1 1 1 2 2 2 2 2 3 4 3 1 1 1 1 2 3 4
3 3 1 0 0 0 0 1 2 2 1 2 2 2 1 1 1 1 1 1 1 2 1 0 0 0 0 1 3 4 2 1 0 1 3 3 3 2 2 1 2 3 4
2 2 1 0 0 1 1 2 2 2 1 2 2 1 0 0 0 0 0 0 1 1 1 0 0 0 0 1 2 4 3 1 1 1 2 3 3 3 3 2 2 3 3
1 1 2 1 1 3 4 4 3 1 1 2 2 1 1 1 1 1 1 0 0 0 0 0 0 0 1 1 2 3 4 4 4 3 3 3 3 3 3 2 2 2 2
0 1 3 4 4 5 7 7 5 3 2 3 3 3 2 2 2 2 2 2 1 0 0 0 1 1 2 3 3 4 6 8 8 7 6 4 2 1 2 3 3 2 1
0 1 3 6 6 6 8 9 7 5 3 3 3 3 3 3 3 3 3 3 2 1 0 1 2 2 3 4 6 6 7 9 10 8 6 4 2 1 1 3 3 2 1
Wind_Speed
4 7 9 7 7 8 8 8 8 9 9 9 9 9 9 10 10 10 10 10 10 10 11 12 12 12 11 12 12 12 12 12 11 11 11 10 10 10 9 9 8 8 10
6 7 10 7 7 7 8 8 8 8 8 9 9 9 9 9 10 10 10 10 10 10 10 11 11 11 11 11 11 11 11 11 11 11 11 10 9 9 8 7 4 7 10
7 8 9 8 7 7 7 7 7 7 8 8 9 9 9 9 9 10 10 10 10 10 10 11 11 10 10 10 10 10 10 10 10 10 9 8 9 8 7 7 7 8 9
7 7 8 8 7 7 7 7 7 7 7 8 9 9 8 8 8 8 9 9 9 9 9 10 10 10 10 10 10 10 9 9 9 8 6 5 7 9 7 7 8 8 8
7 7 9 7 7 7 7 7 7 7 7 7 8 8 8 8 8 8 8 9 9 9 9 9 9 9 9 9 9 9 8 8 7 6 5 5 5 8 8 7 7 8 8
7 7 10 7 6 6 6 6 6 7 7 7 7 7 7 7 7 7 7 8 8 8 8 8 9 9 9 9 8 8 7 6 7 4 4 4 5 7 7 7 7 7 7
7 7 9 8 6 5 5 5 6 6 6 6 6 6 6 6 6 6 6 7 7 8 8 8 8 8 9 9 8 7 7 6 4 3 3 3 4 6 6 6 6 7 7
6 7 9 9 6 6 5 5 5 5 5 6 6 6 6 5 5 5 5 6 7 7 7 7 8 8 8 8 8 7 7 7 5 4 4 4 5 6 6 5 5 6 6
6 6 6 7 8 7 6 6 5 5 6 6 6 6 6 6 5 5 5 6 7 7 7 7 7 7 7 7 8 8 7 7 5 3 4 3 7 7 6 5 5 5 5
6 5 5 5 5 5 7 7 6 6 6 6 6 5 5 5 5 5 5 6 6 6 7 6 6 6 6 6 8 8 8 8 5 4 3 5 7 7 7 5 5 5 5
5 4 3 5 4 4 5 7 6 6 5 4 5 5 3 3 4 4 6 5 5 5 6 6 6 5 5 7 7 8 8 4 4 2 2 7 7 7 7 6 5 5 6
5 4 3 3 3 3 3 4 2 3 4 2 2 2 2 2 2 3 6 5 5 5 6 6 5 6 6 4 7 8 4 3 3 2 4 7 6 6 5 5 5 6 6
4 4 4 3 2 2 2 2 2 2 2 2 3 2 2 1 2 2 3 4 4 5 4 5 6 3 2 1 1 2 1 1 2 1 5 7 6 5 4 5 5 5 5
4 3 3 3 3 2 2 1 2 2 1 2 2 1 2 1 1 2 1 1 2 2 2 2 2 3 2 2 2 2 1 1 1 2 4 7 5 5 4 4 4 4 4
3 3 3 2 2 2 1 0 2 2 2 2 2 2 2 1 1 1 1 1 1 1 2 2 2 3 3 3 2 2 1 2 1 2 4 7 5 4 4 3 3 3 3
3 3 3 3 3 2 1 1 1 1 2 2 2 2 1 1 1 1 1 1 1 1 1 2 3 2 2 2 2 2 1 2 2 2 2 5 6 4 3 3 3 3 3
3 3 3 2 2 2 1 0 1 1 1 1 2 2 1 1 1 0 1 1 1 2 3 2 3 3 3 3 3 3 3 3 3 3 2 1 3 6 5 3 2 2 3
3 3 2 1 2 2 1 0 0 1 1 1 1 1 1 1 0 1 0 1 1 2 3 3 2 2 2 2 2 2 3 3 3 3 2 2 1 2 4 4 2 2 2
4 3 3 2 2 1 1 1 1 1 1 1 1 1 1 1 0 0 1 2 1 2 2 2 3 2 2 2 2 3 3 2 2 2 2 2 2 1 1 5 5 3 2
4 4 3 3 2 2 2 1 1 1 1 1 1 2 1 1 1 1 2 2 1 2 2 2 3 3 2 2 2 3 2 2 2 2 1 2 2 1 1 1 3 4 4
5 4 4 3 3 2 1 1 1 1 1 1 1 2 1 1 1 1 1 2 1 2 3 3 2 3 2 2 2 2 3 3 2 2 1 1 2 2 1 1 1 1 3
6 5 4 4 3 3 2 1 1 0 0 1 1 2 1 1 1 1 1 1 2 2 3 3 2 1 2 2 1 1 2 3 2 2 2 1 1 1 2 1 1 1 0
7 6 4 4 4 3 3 2 2 2 1 2 2 1 1 1 1 1 1 1 1 1 2 2 2 2 1 1 0 1 0 1 1 2 2 2 1 1 1 2 1 1 1
8 7 6 5 4 4 4 3 2 1 1 1 1 1 1 1 1 1 1 1 0 1 1 2 2 1 1 1 2 0 1 1 1 1 1 2 2 1 1 1 1 1 1
8 7 7 5 4 4 4 4 3 2 1 1 1 2 0 1 1 1 1 1 1 1 1 0 1 1 1 1 0 1 2 1 2 1 1 1 1 1 1 1 1 1 1
8 7 7 6 5 5 5 5 4 2 2 1 1 1 1 1 1 1 1 1 1 1 1 2 1 2 1 1 1 1 1 1 1 1 2 2 1 1 1 1 0 1 1
Wind_Direction
82 86 97 97 101 105 103 109 114 121 123 126 128 130 132 135 135 137 140 139 137 138 139 139 137 137 137 136 136 136 135 131 130 132 132 132 135 137 140 144 154 134 124
100 98 103 98 102 108 108 107 108 114 120 126 130 129 130 131 132 131 133 137 138 138 140 141 141 141 140 138 137 137 136 135 134 137 142 142 140 143 145 148 145 117 133
106 105 111 104 106 107 109 105 104 107 113 123 131 131 129 128 129 131 132 134 135 137 139 140 142 146 144 141 139 137 135 136 138 148 170 151 139 144 149 147 134 132 136
106 106 101 107 108 109 110 109 108 108 110 114 125 127 131 131 129 129 132 133 133 136 139 141 145 147 146 143 140 137 137 141 149 178 168 136 137 137 149 150 146 145 144
110 110 107 111 108 109 110 111 111 109 109 112 119 124 126 128 127 125 130 137 136 140 144 146 147 147 145 142 143 143 144 148 170 193 137 139 134 137 150 150 150 153 152
115 114 109 112 107 110 113 116 115 114 114 114 116 120 123 124 124 127 133 138 141 146 148 148 147 147 146 147 150 150 152 171 198 158 148 149 135 144 159 161 160 161 161
113 112 110 108 104 106 109 110 113 117 117 119 119 119 119 122 122 125 129 141 145 147 148 150 149 151 153 155 159 160 167 197 210 144 156 152 136 157 169 174 170 168 166
111 114 116 124 117 108 106 106 106 108 112 116 118 118 115 114 115 122 124 131 142 146 150 151 151 150 152 158 164 169 176 213 195 167 170 159 143 173 180 178 175 171 170
111 109 116 125 127 126 116 106 104 103 101 102 105 106 107 107 112 117 126 137 143 147 148 150 152 154 153 160 170 175 183 212 217 169 169 151 153 175 181 180 178 173 165
109 110 116 113 116 129 124 114 106 101 95 98 104 104 114 132 141 142 143 134 144 149 151 156 158 158 159 166 173 178 188 207 197 171 166 139 155 177 185 185 180 176 180
110 106 113 121 126 116 111 117 134 130 118 139 134 136 171 150 132 145 100 120 139 149 152 156 157 160 172 170 168 175 197 198 163 158 137 126 160 181 189 186 186 186 189
116 113 111 105 119 115 107 117 126 120 112 111 97 121 122 102 101 105 118 131 138 154 165 159 167 183 201 174 167 186 195 167 157 152 118 132 164 183 186 181 185 188 193
124 121 116 108 94 88 99 114 99 92 98 116 105 125 108 127 127 130 133 149 157 180 174 166 189 185 162 132 145 165 158 153 145 137 116 139 160 176 174 172 183 188 191
129 123 117 123 121 93 63 90 113 104 105 86 92 83 108 102 100 97 115 115 162 153 153 169 152 144 150 149 139 122 123 141 119 106 106 124 143 159 161 165 172 179 184
137 134 127 144 129 122 95 352 86 87 77 82 73 70 60 99 91 97 98 107 153 136 158 157 146 146 154 145 126 118 127 118 113 119 116 125 137 147 154 158 167 173 183
146 129 128 154 137 132 130 107 92 105 97 74 75 69 45 69 72 97 156 165 154 153 128 163 149 149 138 131 138 128 129 117 108 112 123 132 141 144 150 159 168 169 177
151 132 133 145 138 143 147 131 119 110 101 85 83 86 50 57 81 230 149 174 143 154 157 161 144 144 147 145 139 134 124 112 111 109 105 108 138 140 140 145 156 163 161
157 141 145 148 126 128 141 149 85 62 87 103 108 96 75 42 51 295 60 117 149 160 152 152 143 130 123 127 126 126 116 121 122 116 110 107 77 103 131 134 135 149 152
160 153 159 155 140 133 144 161 145 121 100 98 98 87 77 60 53 360 55 74 140 129 137 143 120 119 121 119 129 130 123 120 117 123 122 117 111 99 107 124 124 115 138
163 165 169 168 159 171 170 154 139 131 140 112 95 83 75 78 73 17 94 78 99 108 112 101 110 111 111 111 109 103 107 109 117 111 124 110 109 116 112 103 139 138 143
172 174 176 181 170 188 185 195 167 139 133 111 104 80 84 77 92 62 52 101 98 98 102 115 116 128 123 115 120 118 115 114 103 113 101 89 111 115 96 77 59 90 146
179 179 178 185 184 193 171 184 188 135 153 108 83 83 74 89 115 140 90 114 111 117 120 120 122 113 123 132 151 157 149 140 126 106 107 114 99 107 111 117 96 85 11
183 183 183 188 185 184 175 180 168 162 175 130 125 118 99 92 99 66 100 71 101 149 116 133 144 136 131 147 197 314 312 92 111 117 105 96 85 66 80 96 104 113 132
187 182 181 185 184 179 181 180 186 167 146 111 129 105 116 103 100 117 120 113 161 119 123 181 125 171 183 168 145 89 357 38 231 155 141 115 115 110 44 22 47 111 129
185 182 178 178 181 180 180 174 191 194 183 151 142 125 157 120 121 119 137 140 182 184 136 153 140 227 217 221 162 155 158 167 230 225 170 150 137 102 87 61 13 15 70
184 184 178 172 177 179 180 179 186 189 198 173 174 155 185 149 144 137 148 165 201 185 169 194 203 188 219 267 273 238 199 191 197 207 196 184 169 139 117 70 358 345 43